{"data":{"norad_id":64307,"epoch":"2026-05-25T04:00:03.998880Z","epoch_age_seconds":70802,"freshness":"FRESH","line1":"1 64307U 25123S   26145.16671295 -.00034326  00000+0 -28819-2 0  9997","line2":"2 64307  70.0019   1.7894 0002409 273.0583 317.6958 14.98348439  5402","mean_motion":14.98348439,"eccentricity":0.0002409,"inclination_deg":70.0019,"raan_deg":1.7894,"arg_perigee_deg":273.0583,"mean_anomaly_deg":317.6958,"bstar":-0.0028819,"rev_number":540,"period_min":96.105816412173,"perigee_km":570.32458271153,"apogee_km":573.67315817391,"semimajor_km":6950.1358704427,"source":"CELESTRAK","updated_at":"2026-05-25T13:38:20.369231Z"}}